Location: Skalnate Pleso
(49.1889°N, 20.2450°E)
Time: 18:23:38
(UTC+01:00)

Helios 1A Rocket - Pass Details

Date: 19 November 2019
Orbit: 563 x 588 km, 98.3° (Epoch: 09 December)

Event Time Altitude Azimuth Distance (km) Brightness Sun altitude
Rises 04:51:19 0° 20° (NNE) 2,809 6.6 -19.8°
Reaches altitude 10° 04:53:35 10° 27° (NNE) 1,901 5.8 -19.5°
Maximum altitude 04:57:30 41° 99° (E) 839 4.3 -18.8°
Drops below altitude 10° 05:01:21 10° 170° (S) 1,871 5.7 -18.2°
Sets 05:03:34 0° 178° (S) 2,760 6.5 -17.9°
